Torna al catalogo

USA 418

AttivoMilitareVLEO
NORAD 61039·PAYLOAD·🇺🇸 United States

Lanciato Sep 6, 2024 da Vandenberg Space Force Base

Loading…

Prossimi Passaggi (prossime 24 ore)

TLE

ObsoletoSource: Mike McCants

Epoca: Sep 5, 2026, 20:48 UTC

1 61039U 24160U   26248.86725177 0.00000000  00000-0  00000-0 0    00
2 61039  70.0140 154.6169 0004000  79.3701 280.6298 14.96713008    00

Traccia USA 418 in tempo reale con AllMySat

Download on the App Store